Flag for Switzerland Weather past 2 weeks in Biel, Switzerland

Now
58 °F

Cool.


Feels Like: 58 °F
Forecast: 37 / 44 °F
Wind: 1 mph from West

Location: Grenchen

Current Time: Oct 21, 2014 at 6:25:23 AM

Latest Report: Oct 21, 2014 at 5:00 AM


Visibility: N/A

Pressure: 30.02 "Hg

Humidity: 95%

Dew point: 57 °F

Location of BielLocation

Historic Weather in Biel — Graph

°F

Biel temperature yesterday

Maximum temperature yesterday: 67 °F (at 4:00 PM)
Minimum temperature yesterday: 49 °F (at 9:00 AM)
Average temperature yesterday: 57 °F

Past Weeks' High & Low Weather Summary

 TemperatureHumidityPressure
High71 °F (Oct 9, 3:00 PM)100% (Oct 6, 5:00 AM)30.30 "Hg (Oct 6, 5:00 AM)
Low47 °F (Oct 19, 3:00 AM)55% (Oct 9, 3:00 PM)29.78 "Hg (Oct 15, 5:00 PM)
Average58 °F91%29.97 "Hg
* Reported Oct 6 5:00 AM — Oct 21 5:00 AM, Biel, Weather by CustomWeather, © 2014

Note: Actual official high and low records may vary slightly from our data, if they occured in-between our weather recording intervals... More about our weather records

Advertising

Biel weather history for previous 24 hours

 ConditionsComfort  
Time TempWeatherWind HumidityBarometerVisibility
5:00 AM
Oct 21
58 °FCool.1 mph95%30.02 "HgN/A
4:00 AM59 °FCool.5 mph91%30.03 "HgN/A
3:00 AM59 °FCool.2 mph100%30.04 "HgN/A
2:00 AM59 °FCool.3 mph100%30.06 "HgN/A
1:00 AM60 °FCool.2 mph98%30.06 "HgN/A
12:00 AM60 °FCool.7 mph96%30.06 "HgN/A
11:00 PM
Oct 20
60 °FCool.2 mph100%30.10 "HgN/A
10:00 PM60 °FCool.3 mph98%30.07 "HgN/A
9:00 PM61 °FCool.5 mph93%30.06 "HgN/A
8:00 PM62 °FCool.3 mph93%30.06 "HgN/A
7:00 PM62 °FMild.2 mph93%30.06 "HgN/A
6:00 PM64 °FMild.2 mph90%30.05 "HgN/A
5:00 PM66 °FMild.2 mph82%30.06 "HgN/A
4:00 PM67 °FMild.2 mph76%30.08 "HgN/A
3:00 PM67 °FMild.3 mph73%30.09 "HgN/A
2:00 PM66 °FMild.2 mph74%30.12 "HgN/A
1:00 PM64 °FMild.2 mph80%30.15 "HgN/A
12:00 PM60 °FCool.1 mph100%30.18 "HgN/A
11:00 AM56 °FCool.1 mph100%30.20 "HgN/A
10:00 AM53 °FCool.1 mph100%30.22 "HgN/A
9:00 AM49 °FCool.2 mph100%30.23 "HgN/A
8:00 AM49 °FCool.1 mph100%30.23 "HgN/A
7:00 AM50 °FCool.No wind100%30.23 "HgN/A
Weather by CustomWeather, © 2014

See weather overviewHow to use our weather pages